STRIX-3

导读

STRIX‑3是日本Synspective公司研制的合成孔径雷达卫星,由火箭实验室于2024年3月12日从新西兰发射升空。卫星属于百公斤级,工作在X波段,可提供最高0.9米分辨率的对地观测影像,重访周期为12小时,能实现 StripMap 和滑动聚束成像模式。它是Synspective迈向全规模星座运营的首星,将提升地球观测数据供应能力,助力灾害监测与可持续发展领域的数据分析服务。

基本信息
目录编号:
59224
目录名称:
STRIX-3
国际标识:
2024-047A
轨道中心:
EARTH
卫星名称:
STRIX-3
卫星全名:
--
卫星状态:
在轨 (已飞行913 天)
发射日期:
2024-03-12 UTC
国别 :
日本 (JP)
星等 :
--
轨道信息
数据来源 国际轨道数据 AOE轨道数据
星历时间 2026-09-11T00:38:35+0800
11小时前
查看轨道信息
2026-09-10T08:00:00+0800
1天前
查看轨道信息
半长轴 6882.363km 6882.368km
偏心率 0.0014387 0.0014186
轨道倾角 97.670° 97.670°
近地点辐角 121.033° 120.523°
升交点赤经 230.745° 230.037°
平近点角 239.232° 46.235°
近地点 494.324km 494.467km
远地点 514.128km 513.995km
周期 94.704分钟 94.704分钟
每日圈数 15.20535 15.205334
详细信息
使用方式:
暂无
2D轨道图
3D轨道图
轨道高度分析图
轨道倾角分析图
轨道综合分析图
查看轨道综合分析图
交会数据列表
事件ID 空间交会对象 最接近时刻(TCA) 交会距离 交会风险概率(CRP) 交会风险指数(CRI) 操作
CDM_260912-122805-922406-845223
STRIX-3 (59224)
2026-09-12T
12:28:21+0000
0.696 km
远距离
2.768047E-5 中风险 0.64
与全量物体交会距离演化趋势
与全量物体交会风险概率演化趋势